Regional Weather Roundup
Issued by NWS

Home | Current Version | Previous Version | Graphics & Text | Print | Product List | Glossary On
Versions: 1 2 3 4 5 6 7 8 9 10 11 12 13 14 15 16 17 18 19 20 21 22 23 24 25 26 27 28 29 30 31 32 33 34 35 36 37 38 39 40 41 42 43 44 45 46 47 48 49 50
889
ASUS45 KBOU 242010
RWRCO

WEATHER ROUNDUP FOR COLORADO
NATIONAL WEATHER SERVICE DENVER/BOULDER CO
200 PM MDT TUE APR 24 2018

NOTE: "FAIR" INDICATES FEW OR NO CLOUDS BELOW 12000 FEET WITH NO
SIGNIFICANT WEATHER AND/OR OBSTRUCTIONS TO VISIBILITY.

COZ001>005-013-030-031-242100-
...NORTHWEST COLORADO...

CITY           SKY/WX    TMP DP  RH WIND       PRES   REMARKS
CRAIG          FAIR      52  23  32 MISG      30.29F
HAYDEN         FAIR      49  28  44 SW13      30.30F
MEEKER         CLOUDY    51  25  36 N8G18     30.28F
RANGELY        FAIR      56  24  29 E17G23    30.30F
RABBIT EARS PA MOCLDY    32  23  69 W6        30.33S WCI  26
STEAMBOAT SPGS CLOUDY    47  30  52 SW6       30.28S
WALDEN         FAIR      39  16  38 N16G23    30.34F
$$

COZ006>008-011-242100-
...WEST CENTRAL VALLEYS...

CITY           SKY/WX    TMP DP  RH WIND       PRES   REMARKS
GRAND JUNCTION FAIR      67  30  25 NW13G22   30.14F
MONTROSE       CLOUDY    63  29  27 NW14      30.16S
EAGLE          FAIR      59  28  30 W10G18    30.19S
RIFLE          FAIR      60  29  30 NW18G28   30.20F
DELTA          FAIR      72  29  20 W16G26    30.11F
NUCLA          FAIR      68  27  21 N9        30.17F
$$

COZ017>023-064>068-242100-
...SOUTHWEST COLORADO...

CITY           SKY/WX    TMP DP  RH WIND       PRES   REMARKS
DURANGO        FAIR      71  19  14 W17G24    30.11F
CORTEZ         FAIR      74  20  13 W14G25    30.12F
PAGOSA SPRINGS CLOUDY    68  10  10 W13G25    30.16F
TELLURIDE      CLOUDY    54  22  29 W10G17    30.30S
WOLF CREEK PAS CLOUDY    39  19  45 S15G29    30.41F
$$

COZ009-010-012-014-032>034-037-058>063-242100-
...CENTRAL COLORADO...

CITY           SKY/WX    TMP DP  RH WIND       PRES   REMARKS
ASPEN          CLOUDY    53  31  42 N9        30.19S
BUENA VISTA    PTSUNNY   49  34  55 SE18G32   30.20F
COPPER MTN     NOT AVBL
BERTHOUD PASS  CLOUDY    19   9  63 SW3G16    30.34R
COTTONWOOD PAS PTSUNNY   54  28  37 N3G17     30.25F
GUNNISON       FAIR      59  28  30 SW10G21   30.18F
GRANBY         CLOUDY    40  27  58 NW9       30.29R
KREMMLING      PTSUNNY   54  28  37 N13G20    30.27F
LEADVILLE      LGT RAIN  40  27  59 S9        30.25F
MONARCH PASS   LGT SNOW  32  27  80 W33G43    30.45R VSB 1   WCI  17
SALIDA         CLOUDY    42  33  69 E17G35    30.32R
SUNLIGHT       FAIR      36  27  69 SW9G25    30.35S
WILKERSON PASS HVY SNOW  21  19  93 S6        30.36R VSB<1/4 WCI  14
$$

COZ069>075-242100-
...SAN LUIS VALLEY/SANGRE DE CRISTO MOUNTAINS...

CITY           SKY/WX    TMP DP  RH WIND       PRES   REMARKS
ALAMOSA        FAIR      63  27  25 NE3       30.13F
DEL NORTE      CLOUDY    58  26  29 SE3       30.17F
LA VETA PASS   MIX PCPN  30  27  86 N20G31    30.43S VSB 1/2 WCI  18
SAGUACHE       NOT AVBL
$$

COZ035-036-038>040-242100-
...NORTHERN COLORADO FRONT RANGE...

CITY           SKY/WX    TMP DP  RH WIND       PRES   REMARKS
DENVER INTL AP CLOUDY    39  30  70 N13       30.40F
AURORA         NOT AVBL
FRONT RANGE AP LGT SNOW  37  32  81 N12       30.41F
ERIE MUNI ARPT LGT SNOW  36  35  93 N5        30.48F
BOULDER MUN AP LGT SNOW  34  34 100 CALM      30.42S
CENTENNIAL     SNOW      32  31  96 NE7       30.41S VSB 1/2 WCI  26
BROOMFIELD     LGT SNOW  37  36  93 N7        30.42F VSB 3/4
FORT COLLINS   CLOUDY    44  30  57 N14       30.40F
LONGMONT       LGT SNOW  37  34  89 SW3       30.44
$$

COZ041-046-047-076>085-087-088-242100-
...PIKES PEAK/PALMER DIVIDE AND SOUTHERN FOOTHILLS...

CITY           SKY/WX    TMP DP  RH WIND       PRES   REMARKS
COLO. SPRINGS  LGT SNOW  36  29  75 N22       30.37S
A. F. ACADEMY  NOT AVBL
SCHRIEVER AFB  NOT AVBL
CHEYENNE MTN   NOT AVBL
ELLICOTT       LGT SNOW N/A N/A N/A N24G33    30.35R
FALCON         LGT SNOW  32  28  84 N20G28    30.36  WCI  20
FORT CARSON    LGT SNOW  36  31  81 N18G25    30.35S VSB 1
LIMON          CLOUDY    36  32  85 N22G30    30.37F
MONUMENT HILL  CLOUDY    30  28  93 N14       30.40R WCI  20
CANON CITY     CLOUDY    41  32  70 SE17      30.35S
WALSENBURG     NOT AVBL
TRINIDAD       LGT RAIN  37  36  96 NE10      30.36S FOG
$$

COZ042>045-048>051-090-091-242100-
...NORTHEAST COLORADO...

CITY           SKY/WX    TMP DP  RH WIND       PRES   REMARKS
GREELEY ARPT   CLOUDY    46  25  43 N14G22    30.41F
AKRON          CLOUDY    41  31  67 N21G30    30.38F
BURLINGTON     CLOUDY    43  36  76 N23G33    30.33F
WRAY           CLOUDY    43  34  70 N22       30.38F
YUMA           CLOUDY    41  32  70 N20G26    30.37F
STERLING       NOT AVBL
HOLYOKE        CLOUDY    43  34  70 N24G32    30.37F
FORT MORGAN    CLOUDY    42  28  56 N17       30.41
$$

COZ086-089-092>099-242100-
...SOUTHEAST COLORADO...

CITY           SKY/WX    TMP DP  RH WIND       PRES   REMARKS
PUEBLO         CLOUDY    46  30  53 NE15      30.37S
LA JUNTA       CLOUDY    47  31  53 N17G25    30.36F
LAMAR          CLOUDY    46  33  60 NE16G25   30.34S
SPRINGFIELD      N/A     39  34  82 N23       30.32S
$$




USA.gov is the U.S. government's official web portal to all federal, state and local government web resources and services.